Location: Mountain Grove
(34.0887°N, 86.6172°W)
Time: 21:18:11
(UTC+00:00)

Cosmos 1544 - Pass Details

Date: 14 July 2020
Orbit: 473 x 490 km, 82.5° (Epoch: 08 August)

Event Time Altitude Azimuth Distance (km) Brightness Sun altitude
Exits shadow 09:17:19 36° 225° (SW) 772 3.5 -16.0°
Maximum altitude 09:18:26 51° 278° (W) 601 3.2 -15.9°
Drops below altitude 10° 09:21:56 10° 356° (N) 1,643 6.2 -15.3°
Sets 09:24:04 0° 1° (N) 2,525 7.3 -15.0°
